TimeMDT,TemperatureF,Dew PointF,Humidity,Sea Level PressureIn,VisibilityMPH,Wind Direction,Wind SpeedMPH,Gust SpeedMPH,PrecipitationIn,Events,Conditions,WindDirDegrees,DateUTC
12:53 AM,33.1,14.0,46,30.12,10.0,Calm,Calm,-,N/A,,Clear,0,2013-04-04 06:53:00
1:53 AM,28.9,14.0,54,30.13,10.0,Calm,Calm,-,N/A,,Clear,0,2013-04-04 07:53:00
2:53 AM,28.9,15.1,56,30.12,10.0,Calm,Calm,-,N/A,,Clear,0,2013-04-04 08:53:00
3:53 AM,28.9,15.1,56,30.12,10.0,East,6.9,-,N/A,,Clear,80,2013-04-04 09:53:00
4:53 AM,28.0,16.0,61,30.14,10.0,NE,8.1,-,N/A,,Clear,50,2013-04-04 10:53:00
5:53 AM,28.0,16.0,61,30.15,10.0,NE,6.9,-,N/A,,Clear,50,2013-04-04 11:53:00
6:53 AM,25.0,15.1,66,30.18,10.0,East,4.6,-,N/A,,Clear,90,2013-04-04 12:53:00
7:53 AM,33.1,17.1,52,30.19,10.0,NE,4.6,-,N/A,,Clear,50,2013-04-04 13:53:00
8:53 AM,43.0,19.0,38,30.17,10.0,Calm,Calm,-,N/A,,Clear,0,2013-04-04 14:53:00
9:53 AM,52.0,19.9,28,30.14,10.0,NE,3.5,-,N/A,,Clear,50,2013-04-04 15:53:00
10:53 AM,57.9,18.0,21,30.13,10.0,Calm,Calm,-,N/A,,Clear,0,2013-04-04 16:53:00
11:53 AM,64.0,15.1,15,30.13,10.0,North,4.6,-,N/A,,Clear,360,2013-04-04 17:53:00
12:53 PM,66.9,18.0,15,30.10,10.0,South,8.1,18.4,N/A,,Clear,170,2013-04-04 18:53:00
1:53 PM,66.0,16.0,15,30.09,10.0,NW,12.7,18.4,N/A,,Clear,310,2013-04-04 19:53:00
2:53 PM,68.0,14.0,12,30.06,10.0,NW,11.5,-,N/A,,Clear,320,2013-04-04 20:53:00
3:53 PM,66.9,12.0,12,30.04,10.0,NW,6.9,-,N/A,,Clear,310,2013-04-04 21:53:00
4:53 PM,66.9,14.0,13,30.04,10.0,WNW,12.7,20.7,N/A,,Clear,290,2013-04-04 22:53:00
5:53 PM,64.9,8.1,11,30.04,10.0,WNW,11.5,-,N/A,,Clear,300,2013-04-04 23:53:00
6:53 PM,62.1,12.0,14,30.05,10.0,NNW,3.5,-,N/A,,Clear,340,2013-04-05 00:53:00
7:53 PM,52.0,19.9,28,30.05,10.0,SE,6.9,-,N/A,,Clear,130,2013-04-05 01:53:00
8:53 PM,46.9,17.1,30,30.04,10.0,ENE,4.6,-,N/A,,Clear,70,2013-04-05 02:53:00
9:53 PM,45.0,16.0,31,30.04,10.0,ENE,5.8,-,N/A,,Clear,60,2013-04-05 03:53:00
10:53 PM,45.0,16.0,31,30.01,10.0,ENE,5.8,-,N/A,,Clear,70,2013-04-05 04:53:00
11:53 PM,37.9,17.1,43,30.01,10.0,Calm,Calm,-,N/A,,Clear,0,2013-04-05 05:53:00